Volver al catálogo

STARLINK-37272

ActivoComunicacionesVLEO
NORAD 68726·PAYLOAD·🇺🇸 United States

Lanzado Apr 14, 2026 desde Cape Canaveral Space Force Station

Loading…

Próximos Pases (próximas 24 horas)

TLE

ActualizadoSource: CelesTrak SupGP

Época: Sep 15, 2026, 04:23 UTC

1 68726C 26081AD  26258.18312500 -.00067097  00000+0 -19824-2 0  2583
2 68726  53.1578 230.3091 0001385  90.0243 347.5865 15.34423271    14

Sigue STARLINK-37272 en tiempo real con AllMySat

Download on the App Store